{"data":{"norad_id":69818,"intl_designator":"2026-153U","name":"CZ-6A R/B","alt_names":[],"object_type":"ROCKET_BODY","status":"UNKNOWN","operator":null,"country":"PRC","launch_date":"2026-07-04","launch_site_code":"TAISC","launch_vehicle":null,"mission":null,"orbit_class":"UNKNOWN","rcs_meters":null,"size_class":null,"mass_kg":null,"dimensions":null,"purposes":[],"wikipedia_slug":null,"has_3d_model":false,"image_url":null,"decayed_at":null,"tle_current":{"epoch":"2026-08-02T21:49:01.129440Z","epoch_age_seconds":4219927,"freshness":"OLD","line1":"1 69818U 26153U   26214.90904085  .00000286  00000+0  61288-4 0  9993","line2":"2 69818  89.0189 356.7726 0085493  24.2460 336.2734 14.53458540  4294","mean_motion":14.5345854,"eccentricity":0.0085493,"inclination_deg":89.0189,"raan_deg":356.7726,"arg_perigee_deg":24.246,"mean_anomaly_deg":336.2734,"bstar":6.1288e-5,"rev_number":429,"period_min":99.074033443018,"perigee_km":653.73893411866,"apogee_km":775.01095888713,"semimajor_km":7092.5119465029,"source":"CELESTRAK","updated_at":"2026-08-03T09:00:42.334207Z"}}}